Temp
3 3 3 4 4 4 5 5 5 7 6 7 7 7 8 8 9 9 4 5 5 1 1 2 2 3 5 5 7 6 8 8 7 8 8 7 7 7 7 8 9 8 7 8 8 8 7 6 9 10 7 5 6 5
3 3 3 4 4 4 4 5 5 6 6 6 6 7 7 8 8 9 6 5 5 1 1 2 2 3 2 3 3 3 6 6 6 6 6 5 7 4 5 8 6 8 7 8 7 8 6 5 6 4 4 5 5 5
4 3 3 4 4 4 4 4 5 6 5 5 5 6 6 7 9 9 7 6 6 0 1 2 3 4 4 3 4 6 4 4 4 3 4 5 9 5 7 6 7 7 5 7 8 7 6 5 4 4 4 4 3 3
4 2 3 3 4 4 4 4 5 5 5 5 5 6 6 7 8 8 8 6 6 1 3 3 3 4 4 4 4 4 4 3 2 2 3 5 8 4 5 5 5 6 5 6 6 6 4 4 3 3 3 3 3 2
4 2 3 3 3 4 4 4 4 5 5 5 5 5 6 6 6 7 7 6 6 5 2 2 2 3 4 4 4 5 5 3 3 3 1 4 2 3 1 3 3 3 5 6 7 5 5 5 3 2 2 3 2 2
3 2 3 3 3 3 4 5 5 5 5 6 5 5 6 6 6 7 4 6 6 5 1 1 1 2 3 4 3 2 2 0 1 3 2 1 1 2 4 4 5 3 2 3 5 3 3 2 2 2 2 2 1 1
3 2 3 3 3 4 4 4 4 5 5 5 5 5 5 6 6 5 4 5 6 6 1 -1 -1 2 2 2 1 1 1 0 1 1 2 2 1 -0 2 4 5 2 3 2 2 2 3 2 2 1 1 1 0 -0
2 2 3 3 3 4 4 4 5 5 5 5 5 5 5 6 6 5 5 5 6 4 0 -1 -0 0 2 2 3 -0 2 1 0 1 1 2 1 1 3 3 3 2 2 2 2 2 2 1 0 1 -0 -1 -1 -2
2 2 2 2 3 4 4 5 5 5 4 5 5 5 5 6 5 5 5 5 5 5 -0 -1 1 1 1 1 1 2 1 4 1 2 2 2 2 2 5 3 2 1 3 3 1 1 1 1 1 1 -0 -1 -1 -2
2 2 2 3 3 4 4 4 5 4 4 4 5 4 2 3 3 4 4 2 -0 -1 -1 -2 -1 1 0 0 1 1 1 1 -0 2 1 2 2 3 2 2 1 1 2 1 -2 0 1 -3 -1 -0 -1 -2 -3 -3
2 2 2 3 3 4 4 4 5 4 4 4 3 1 3 3 4 1 0 1 1 1 -1 -2 -1 1 1 1 2 1 -0 -1 -1 1 2 -0 1 2 1 0 -0 -0 -0 1 2 2 1 -0 -4 -2 -2 -2 -2 -3
2 2 2 3 3 4 4 4 4 5 4 4 4 3 3 1 -1 1 -3 -0 0 2 -1 0 1 1 0 0 1 1 0 -1 1 -1 -1 -0 0 0 -0 0 -1 -2 -1 0 1 1 -0 -1 -1 -3 -3 -3 -2 -1
2 2 3 3 4 4 4 4 4 5 5 4 3 1 1 -1 1 -1 2 0 -1 -0 -1 -0 1 0 -1 0 -1 -2 -1 1 0 1 -1 -0 -0 1 -1 -3 -1 -1 0 1 0 -0 -0 -1 -1 -2 -3 -2 -2 -3
2 2 3 4 4 4 4 4 4 3 3 2 2 3 2 -1 -1 1 2 1 1 -0 -1 -1 -0 0 0 -0 -0 -1 2 2 -0 -2 -0 -3 -1 0 -2 -1 -1 -0 -0 -1 -4 -3 -4 -4 -4 -3 -2 -2 -3 -4
2 2 3 3 4 4 4 4 4 3 2 2 0 1 1 -0 -3 -3 -4 -2 -1 0 -0 -1 -1 -0 -2 -1 1 2 1 -1 -0 1 -1 -4 -4 -2 -2 -2 -2 -1 -6 -7 -4 -5 -5 -4 -5 -5 -3 -4 -4 -5
2 2 3 4 4 4 4 3 3 1 -0 -1 -4 -3 -3 -3 -3 -1 -3 -1 -2 0 -1 0 -1 -1 -1 -1 -1 -0 -0 1 2 -3 -3 -3 -4 -2 -2 -2 -3 -3 -3 -4 -4 -5 -5 -5 -6 -6 -6 -5 -5 -5
2 3 4 5 4 4 3 3 2 0 2 0 -2 -3 -2 -1 -1 -1 -1 -1 -1 -0 2 -0 1 3 -2 -3 -1 -2 0 -0 -3 -4 -5 -3 -2 -3 -4 -3 -3 -3 -4 -5 -6 -6 -6 -6 -6 -7 -8 -7 -6 -6
2 4 4 4 4 3 2 3 1 1 1 -3 -3 -4 -1 0 -0 -0 -1 -2 -0 -0 -1 -0 -2 -2 -0 1 0 -1 -3 -7 -5 -4 -4 -3 -4 -4 -3 -4 -4 -5 -6 -6 -6 -6 -7 -7 -8 -7 -8 -8 -8 -7
3 4 4 4 3 2 0 -1 0 -1 -3 -6 -5 -4 -2 -0 -1 -1 -1 -1 -2 -2 -3 -4 -2 -1 1 -1 -2 -5 -5 -4 -3 -3 -5 -4 -4 -4 -5 -5 -5 -6 -7 -7 -7 -8 -7 -8 -8 -8 -9 -9 -8 -8
3 4 4 4 3 1 -0 -1 -1 -5 -5 -4 -5 -4 -2 -1 -2 -2 -2 -1 -1 -3 -2 -3 1 2 1 -1 -4 -3 -3 -3 -2 -3 -4 -5 -5 -5 -6 -6 -7 -7 -8 -8 -8 -7 -8 -9 -9 -10 -10 -8 -9 -10
3 3 3 3 1 0 -0 -1 -3 -2 -4 -4 -6 -4 -2 -3 -2 -2 -2 -3 -3 -4 -2 -2 -1 -2 -3 -4 -2 -2 -3 -2 -2 -2 -3 -8 -6 -5 -7 -8 -8 -8 -9 -9 -10 -10 -9 -10 -10 -10 -10 -10 -10 -10
2 2 0 0 -2 -2 -2 -3 -2 -3 -3 -4 -4 -3 -2 -2 -1 -2 -5 -3 -4 -1 -3 -3 -4 -4 -3 -3 -4 -2 -2 -2 -3 -3 -3 -3 -7 -10 -9 -9 -9 -12 -10 -10 -10 -11 -11 -11 -10 -10 -10 -11 -10 -10
2 1 -0 -1 -1 -1 -2 -4 -2 -3 -1 -2 -3 -1 -1 -2 -3 -6 -2 -3 -2 -5 -5 -5 -6 -5 -5 -6 -4 -4 -3 -3 -6 -6 -6 -6 -6 -7 -8 -9 -9 -10 -11 -10 -11 -11 -11 -11 -11 -11 -11 -11 -12 -11
1 0 0 -0 -0 -2 -2 -2 -2 -2 -2 -2 -1 -0 -3 -3 -6 -4 -1 -3 -3 -5 -6 -6 -5 -5 -6 -6 -6 -7 -5 -3 -6 -7 -6 -6 -10 -9 -9 -9 -10 -10 -10 -11 -11 -11 -11 -12 -11 -12 -12 -12 -12 -12
1 0 -0 -1 -2 -4 -6 -4 -3 -2 -1 -2 -2 -2 -3 -5 -2 -2 -2 -1 -4 -4 -5 -5 -4 -2 -2 -6 -8 -7 -5 -3 -6 -9 -8 -6 -8 -10 -10 -10 -10 -10 -11 -11 -12 -12 -12 -12 -12 -12 -12 -12 -11 -10
2 -1 0 -3 -4 -3 -4 -4 -3 -3 -5 -5 -3 -5 -5 -2 -1 2 -0 -2 -4 -3 -4 -3 -2 -4 -5 -6 -5 -7 -5 -4 -3 -7 -9 -7 -7 -8 -13 -15 -15 -11 -11 -12 -12 -13 -13 -13 -12 -12 -12 -12 -12 -12
-0 -1 -2 -2 -2 -3 -3 -3 -2 -3 -3 -3 -4 -5 -2 2 2 1 -4 -5 -4 -3 -1 -1 -2 -1 -2 -6 -5 -3 -3 -4 -4 -5 -6 -8 -9 -9 -9 -11 -12 -11 -12 -12 -12 -12 -13 -13 -12 -12 -13 -12 -13 -13
-0 -3 -2 -4 -5 -6 -4 -3 -1 -0 -1 -2 -2 -1 2 3 3 -3 -5 -6 -5 -3 -3 -2 -1 -0 -3 -3 -4 -5 -7 -7 -7 -8 -9 -10 -10 -10 -10 -11 -11 -12 -12 -11 -12 -12 -12 -12 -12 -12 -12 -12 -12 -13
-5 -5 -2 -7 -7 -5 -4 -2 -0 -3 -2 -2 1 -1 -0 -5 -8 -8 -9 -7 -6 -4 -5 -8 -8 -4 -5 -5 -6 -5 -5 -7 -10 -12 -12 -14 -15 -11 -10 -11 -11 -11 -11 -11 -11 -11 -12 -11 -12 -12 -12 -12 -12 -12
-6 -6 -5 -6 -3 -2 -5 -7 -6 -11 -7 -6 -4 -6 -6 -7 -10 -10 -9 -8 -5 -3 -4 -6 -8 -6 -8 -8 -11 -9 -8 -7 -6 -6 -12 -13 -11 -9 -10 -11 -10 -10 -10 -10 -10 -10 -11 -11 -11 -11 -11 -12 -12 -12
-5 -6 -6 -6 -6 -9 -11 -10 -9 -5 -7 -7 -7 -5 -5 -7 -9 -9 -9 -8 -6 -6 -7 -8 -8 -6 -7 -8 -9 -11 -11 -8 -7 -7 -6 -7 -9 -10 -10 -10 -10 -10 -10 -10 -10 -10 -11 -11 -11 -11 -11 -12 -12 -12
-4 -5 -5 -6 -8 -9 -9 -7 -6 -6 -6 -5 -6 -8 -8 -6 -5 -8 -7 -7 -6 -5 -4 -6 -6 -7 -3 -2 -2 -3 -3 -4 -7 -7 -8 -8 -9 -9 -9 -10 -10 -10 -10 -10 -10 -10 -11 -11 -11 -11 -12 -12 -12 -12
-6 -6 -7 -7 -7 -7 -7 -5 -5 -6 -5 -5 -6 -8 -7 -5 -3 -6 -8 -6 -5 -5 -5 -4 -3 -2 -2 -3 -4 -4 -3 -5 -6 -8 -8 -9 -9 -9 -10 -10 -10 -10 -10 -10 -10 -10 -11 -11 -11 -11 -11 -12 -12 -12
Height
797 794 793 788 781 777 773 771 766 762 761 761 761 759 758 757 756 753 758 755 756 774 782 781 779 777 774 774 773 777 775 774 779 779 782 789 789 793 791 787 783 785 794 792 792 794 800 785 777 775 785 788 787 788
795 794 789 786 782 777 773 769 767 766 764 763 763 762 761 761 760 757 758 759 758 764 780 781 781 780 780 778 778 781 779 779 781 786 791 794 788 802 798 788 791 789 787 786 790 784 784 786 784 786 787 786 787 788
793 790 788 786 783 779 776 771 769 768 768 766 764 763 763 762 761 761 761 761 762 771 780 780 781 780 779 777 776 777 781 779 780 782 788 790 780 794 791 795 788 784 789 787 783 781 784 786 787 787 786 787 789 790
789 787 786 783 778 776 773 772 770 768 768 767 766 765 764 763 763 763 763 762 762 769 779 784 780 780 779 776 775 775 775 777 779 782 788 787 781 793 793 790 791 786 788 787 786 781 785 786 787 787 788 788 789 790
785 784 782 780 777 774 770 769 769 768 766 767 767 767 766 765 765 765 764 764 764 768 780 785 782 781 779 776 775 775 775 778 782 787 794 792 795 795 801 798 794 786 780 783 779 780 782 782 784 786 787 788 790 791
779 781 781 777 776 772 769 767 765 766 764 766 767 766 767 766 767 767 766 766 765 766 774 788 784 782 780 779 778 778 779 781 784 786 793 795 794 797 795 792 775 778 780 779 779 781 783 784 785 785 787 789 790 790
776 778 778 775 771 769 768 766 765 763 764 764 768 769 768 768 768 769 770 767 766 767 773 792 792 783 781 780 781 781 781 784 785 790 792 793 795 797 795 787 771 777 776 778 778 780 782 783 784 785 786 788 789 788
769 772 773 772 768 767 765 764 761 759 763 763 768 770 769 768 769 769 768 768 767 767 773 793 793 789 783 783 783 784 784 786 789 792 794 792 795 796 789 773 773 775 776 778 780 780 781 782 784 785 786 786 787 786
764 765 768 769 767 765 763 761 761 762 766 766 768 771 772 770 769 769 769 769 768 770 782 789 787 792 783 786 786 785 785 785 792 790 792 794 791 791 765 768 772 774 774 774 779 780 781 782 784 785 785 785 785 783
759 759 763 765 763 762 763 762 763 765 769 769 770 773 776 772 771 770 771 771 770 771 774 785 784 787 786 788 790 790 789 792 803 791 793 792 781 765 765 766 767 770 772 775 783 782 782 786 784 783 782 782 781 780
754 754 758 760 760 759 760 760 760 765 768 774 771 775 774 774 773 773 779 778 777 775 774 779 780 779 782 787 786 787 794 799 807 795 793 798 784 765 763 766 767 769 771 773 774 776 777 779 781 780 778 777 776 775
749 751 752 755 756 756 758 759 759 760 765 771 771 773 774 777 781 782 790 780 777 767 772 772 774 775 781 780 784 789 792 799 794 795 802 797 771 763 765 766 768 770 771 773 774 775 776 776 776 776 774 773 771 769
744 747 748 750 753 754 755 759 760 761 763 768 770 774 779 782 784 789 775 773 776 762 766 768 773 775 780 780 788 795 797 794 790 791 796 776 764 760 763 766 768 769 771 772 773 774 773 772 772 771 770 769 767 765
737 741 744 747 747 750 753 759 761 762 763 769 773 774 775 782 776 763 757 752 752 753 759 765 771 773 775 782 786 797 786 786 798 805 783 771 758 757 761 764 766 769 770 771 771 771 771 771 769 767 767 765 763 760
732 736 738 740 743 745 748 754 763 764 766 768 774 771 766 760 764 764 765 759 756 754 757 765 771 772 781 784 781 781 788 796 784 770 764 761 759 758 761 764 766 768 770 771 771 770 769 767 767 765 762 760 758 755
725 730 731 732 734 736 742 750 759 763 767 770 774 772 764 767 762 759 762 760 757 755 758 758 770 776 776 776 783 781 784 772 753 760 755 754 757 758 761 763 766 768 770 770 769 768 767 766 764 762 759 756 753 750
722 722 726 729 732 737 741 748 756 760 761 761 762 758 756 754 755 754 755 755 757 758 754 760 764 754 773 782 774 770 760 748 750 753 754 752 755 758 761 764 767 768 769 769 767 766 766 764 762 759 756 753 750 747
715 717 721 725 729 733 740 745 752 753 751 755 759 755 750 745 748 750 752 755 757 755 756 755 756 767 761 759 753 743 746 753 750 751 752 753 756 758 760 763 766 767 768 767 766 765 764 762 759 757 754 752 748 745
709 714 715 719 724 730 736 741 743 748 748 753 750 748 749 746 744 746 749 751 754 754 755 757 756 755 741 737 736 743 743 742 747 752 754 756 756 758 761 763 764 766 766 765 764 764 763 761 759 756 754 752 748 745
705 710 710 714 723 727 735 739 738 744 750 744 745 747 746 744 745 742 746 750 754 756 755 753 734 725 725 725 727 728 732 736 742 750 756 757 757 758 760 761 763 764 763 764 764 763 760 759 757 756 754 751 748 744
703 704 708 710 718 722 724 730 735 733 735 741 742 743 745 746 741 740 746 750 756 755 745 733 727 725 725 724 723 726 731 734 739 741 747 756 756 757 759 761 762 762 762 761 762 761 760 759 757 755 753 750 747 743
692 698 703 708 715 721 723 725 726 729 734 737 741 739 742 741 737 738 744 749 749 731 730 729 728 727 726 726 728 729 731 736 739 742 745 748 754 758 759 760 759 761 761 762 762 760 759 757 755 754 751 748 744 741
691 694 700 706 714 716 722 724 723 728 729 733 737 735 735 736 737 742 736 732 725 723 724 727 727 728 727 729 732 734 735 736 740 743 745 748 753 756 757 758 759 759 760 760 759 758 757 756 753 752 749 745 742 739
683 689 693 698 702 712 718 718 718 721 727 729 728 726 734 732 740 738 726 721 714 717 722 724 726 730 731 734 736 735 737 737 739 742 745 748 753 755 756 757 757 757 758 758 756 755 754 753 752 749 747 744 741 739
675 684 685 692 696 709 720 718 716 716 719 721 723 726 728 733 725 727 718 704 710 713 716 721 723 722 723 730 733 735 736 734 735 741 745 748 750 753 755 755 755 756 756 756 754 753 752 751 750 748 745 742 739 737
655 664 666 678 688 689 697 706 707 710 719 722 716 723 725 720 717 700 695 691 696 699 703 707 710 719 723 723 727 733 731 732 733 738 745 746 748 749 751 753 754 755 755 754 752 751 750 749 747 745 741 739 738 735
647 655 658 660 662 670 681 684 685 694 701 706 713 718 711 698 693 680 679 678 680 681 688 696 703 707 713 719 724 726 728 731 734 738 741 744 747 749 749 750 752 753 752 751 750 749 748 746 743 742 740 738 737 735
633 644 652 661 664 666 671 676 676 677 678 683 693 693 680 675 669 673 673 673 672 676 685 694 702 706 710 714 720 722 727 732 736 739 742 745 747 748 748 749 750 749 749 748 747 747 745 744 742 740 738 737 734 733
641 640 642 666 667 664 663 661 658 660 660 667 665 674 670 672 674 675 675 673 674 677 685 693 703 707 711 716 720 722 725 729 733 740 744 747 746 745 746 747 747 746 746 745 744 743 743 741 739 737 736 736 733 731
638 635 643 655 649 650 657 660 663 667 664 665 664 669 673 675 675 675 675 676 675 677 682 690 696 702 706 713 717 722 726 728 729 732 737 740 739 741 743 744 744 745 744 743 742 742 741 739 738 737 736 734 732 730
629 635 644 649 654 661 665 665 664 666 667 668 667 665 670 674 676 676 676 675 675 679 684 693 699 700 704 708 713 720 725 726 728 731 732 733 736 739 741 741 743 743 743 742 741 741 740 739 737 736 735 733 732 729
627 632 634 647 660 663 663 664 664 666 666 665 669 671 675 674 672 675 675 675 677 682 685 689 694 699 702 706 711 714 715 718 724 728 731 733 736 738 739 740 742 742 742 740 740 739 739 738 737 736 735 734 732 730
632 633 636 645 656 659 661 659 661 665 665 665 668 672 671 667 665 669 671 673 675 678 683 688 692 698 704 708 710 712 715 719 723 726 730 733 735 737 738 740 741 741 739 739 739 738 738 738 737 736 735 734 733 731
Wind_Speed
16 18 18 19 22 25 25 24 23 11 11 8 11 13 12 11 10 13 13 9 4 3 2 2 3 3 2 1 3 3 3 3 3 3 2 2 2 2 1 1 2 4 3 2 1 1 5 1 2 2 3 0 2 2
15 15 16 17 20 22 22 22 20 7 9 7 4 4 3 6 10 5 7 10 13 5 3 3 6 8 3 2 2 2 3 1 3 4 1 2 1 1 3 2 0 2 4 3 6 4 1 1 1 1 3 4 3 2
16 13 14 15 19 20 19 17 16 7 8 7 5 4 2 1 5 9 9 7 7 4 3 3 3 5 9 4 1 3 2 2 2 1 3 2 2 3 3 4 1 2 2 2 1 2 4 3 1 2 1 2 3 1
16 12 12 13 13 16 16 16 11 10 6 7 3 3 2 2 5 2 5 7 6 4 3 2 4 2 10 5 1 2 3 4 5 2 2 2 2 2 2 2 3 3 4 3 4 4 2 4 4 4 3 3 2 0
15 13 12 13 13 14 13 13 11 7 5 5 3 1 1 1 2 3 8 7 4 3 3 2 2 4 9 9 8 6 5 3 2 2 2 1 1 2 0 1 3 5 5 4 4 1 2 1 2 5 5 2 2 1
12 11 12 13 14 14 14 12 8 8 6 5 4 1 2 1 4 4 3 4 5 3 4 2 3 4 6 6 11 10 5 3 2 3 2 1 1 2 2 3 3 3 2 2 3 2 3 3 4 3 4 2 1 2
11 11 12 11 12 12 14 12 12 9 5 4 4 3 2 3 2 2 2 2 4 2 3 2 2 2 3 3 3 3 4 2 2 2 1 2 1 2 2 4 3 5 5 4 3 5 2 3 3 5 2 1 2 3
11 10 12 12 11 10 10 11 15 6 12 7 3 2 2 2 2 2 3 4 3 7 3 3 2 2 1 1 1 2 2 2 4 2 1 1 1 1 3 5 3 4 5 4 4 2 3 4 4 3 0 1 3 5
12 9 11 11 9 9 8 6 5 12 10 8 5 3 3 2 1 0 5 3 3 2 3 2 4 3 1 1 1 1 1 2 1 1 1 2 1 4 6 5 6 6 5 5 5 4 4 3 3 2 2 3 3 6
13 10 10 11 9 6 4 2 12 11 10 9 6 2 3 3 4 5 1 2 4 3 3 2 1 2 2 0 1 2 2 1 1 1 1 2 4 4 3 4 4 7 6 7 4 2 2 2 4 4 5 4 5 5
13 11 10 10 8 6 6 5 14 16 11 1 2 1 2 2 1 3 1 2 1 2 2 2 3 3 2 3 2 1 2 0 2 3 2 2 3 3 3 4 4 5 6 5 3 2 2 4 5 5 6 7 9 10
14 12 12 12 10 8 8 10 20 16 9 4 5 3 1 2 3 2 3 2 3 5 2 4 4 3 2 1 3 1 3 2 3 2 2 3 4 3 5 5 5 5 6 4 2 3 5 8 9 8 10 12 14 14
15 13 13 13 11 10 10 13 22 16 14 3 2 3 2 1 1 5 6 4 2 5 4 4 3 3 2 1 3 2 3 3 2 1 3 4 3 2 6 4 5 5 4 1 3 4 7 11 12 11 13 17 17 17
16 14 15 16 14 13 13 16 22 18 6 2 2 2 5 3 5 5 3 2 1 3 7 3 3 2 2 3 2 4 1 3 2 2 6 3 5 4 6 4 5 4 2 2 5 8 10 11 14 18 17 19 20 20
14 15 17 17 16 14 18 23 25 9 3 3 3 5 6 3 2 2 2 1 1 4 5 4 3 2 1 3 2 3 3 4 5 5 3 3 3 5 6 4 4 2 1 2 4 6 12 15 13 17 21 20 21 23
13 12 18 18 14 18 26 30 17 3 2 2 1 1 3 1 2 1 1 2 2 5 1 2 3 2 2 4 3 7 6 6 4 3 2 3 4 5 5 5 4 3 2 4 7 9 12 13 14 16 20 19 19 20
14 7 12 13 19 25 34 15 5 3 4 5 4 3 2 1 3 2 3 3 4 2 3 3 5 6 3 2 3 4 5 3 3 2 2 4 6 6 6 6 6 5 5 6 9 11 12 13 14 14 9 18 22 23
11 12 17 19 29 35 7 6 5 4 6 3 2 3 2 2 3 1 2 2 3 2 2 4 4 3 5 5 4 3 3 1 1 2 3 5 5 9 8 7 6 5 5 7 8 10 11 13 11 10 14 18 19 19
18 18 19 30 29 8 3 3 5 4 5 3 2 1 2 1 2 2 2 4 1 1 3 1 2 3 4 4 3 3 3 3 4 3 3 6 10 10 9 8 6 5 6 7 8 8 9 12 13 15 15 16 15 17
24 17 26 37 31 5 3 1 3 3 4 3 1 1 2 1 2 3 3 2 1 0 2 3 4 3 3 2 3 3 3 5 6 4 3 3 7 10 8 6 4 5 5 6 7 9 11 12 14 15 15 16 16 16
20 21 34 32 5 3 2 4 2 3 3 3 2 3 1 1 2 3 3 2 1 3 3 3 3 1 0 1 7 11 7 6 4 4 4 3 5 8 7 5 4 4 4 5 6 9 11 9 13 14 14 15 15 17
13 31 8 10 3 2 2 4 3 2 2 2 2 3 2 2 2 3 3 2 3 4 3 2 2 2 3 4 4 11 17 19 18 15 14 14 3 2 3 3 4 3 3 3 6 7 10 13 13 12 14 15 17 19
29 13 6 5 3 3 3 5 3 4 3 5 2 3 2 2 1 1 2 3 3 2 3 2 3 2 6 10 17 16 16 20 8 11 12 10 8 6 6 5 4 4 3 2 8 9 11 12 12 13 15 16 16 17
15 6 5 6 4 5 4 3 2 3 3 3 4 3 3 3 3 2 4 3 2 3 3 5 8 4 4 3 2 3 9 16 18 13 10 11 8 4 4 4 4 3 2 3 8 9 11 13 12 14 15 16 16 15
6 7 7 6 4 6 4 4 3 3 4 4 5 2 3 3 3 4 4 3 4 5 6 6 5 5 5 2 2 8 13 16 13 4 8 8 10 8 6 5 3 3 1 6 8 10 12 13 13 14 16 14 16 14
7 7 8 7 4 6 7 7 8 7 4 5 5 2 3 3 3 6 4 6 5 7 10 12 11 6 3 3 6 4 13 14 12 8 11 10 9 9 6 3 1 2 2 5 7 9 12 13 14 14 15 16 15 16
7 6 4 0 5 6 3 2 3 4 6 7 5 5 4 5 7 5 1 2 4 10 24 24 21 12 9 10 13 14 18 13 6 7 10 10 9 7 6 6 6 3 3 6 8 8 11 13 13 14 15 16 14 12
3 6 9 7 3 1 6 4 6 7 5 4 6 6 9 9 6 2 2 2 10 24 26 25 21 22 24 26 26 25 18 14 13 13 12 9 9 9 5 3 1 3 5 5 6 8 9 9 12 12 13 14 13 11
3 4 7 4 3 2 4 5 6 4 4 7 8 4 4 1 1 0 1 9 18 27 21 18 18 26 27 25 23 15 18 22 16 5 5 3 2 11 11 5 2 1 3 5 4 5 5 5 8 8 7 9 9 10
4 1 5 3 6 5 3 2 1 1 1 1 2 2 1 0 2 1 8 13 16 15 19 22 26 25 20 17 15 13 17 19 11 7 4 4 7 11 9 5 5 2 3 5 6 6 5 6 6 7 8 10 12 14
4 3 4 3 3 1 1 0 1 1 1 2 3 2 2 2 1 4 8 9 17 23 23 19 16 20 23 18 15 11 7 16 13 10 9 14 14 11 10 8 6 4 4 5 6 6 7 8 9 10 12 14 14 14
2 3 5 4 2 1 1 1 2 1 1 2 1 2 1 2 1 2 11 17 18 16 19 21 19 19 24 21 19 12 9 19 21 18 17 15 13 11 9 8 6 4 4 5 6 6 7 8 9 11 12 13 14 15
3 2 3 4 3 2 3 3 2 2 1 2 1 2 1 2 4 3 13 20 17 16 21 25 24 26 22 18 15 14 14 20 20 20 19 14 8 6 6 7 6 4 4 4 5 6 7 7 8 9 10 11 12 13
Wind_Direction
323 328 337 340 343 348 353 1 5 31 27 65 95 95 84 63 55 77 60 55 101 98 23 350 355 14 355 33 130 211 61 353 42 69 116 189 131 227 73 237 197 178 137 195 77 86 298 88 325 169 202 216 150 120
319 327 331 339 342 347 350 357 10 32 22 19 28 199 86 68 47 63 71 64 76 81 137 120 81 59 27 281 130 26 153 150 173 94 97 125 143 79 159 251 42 238 182 189 183 217 220 215 233 163 181 166 184 165
312 317 324 336 339 343 345 355 2 49 20 3 3 328 221 314 30 54 68 74 80 92 35 47 342 341 7 348 275 122 274 168 101 159 156 151 133 144 177 244 218 251 149 212 5 212 224 199 189 195 154 139 112 115
304 305 316 324 329 335 340 342 351 6 351 10 318 14 193 259 303 353 70 39 85 105 110 283 343 5 355 14 220 230 151 102 99 70 100 117 151 166 209 209 197 200 134 184 268 267 311 239 217 173 145 109 129 85
296 297 307 315 324 331 334 333 330 335 352 346 356 335 331 186 131 110 78 58 68 119 146 197 323 4 18 45 74 100 110 90 72 56 62 169 115 129 322 45 246 188 185 172 223 214 136 239 205 158 156 166 182 211
285 286 303 307 318 322 326 320 312 308 329 291 276 313 354 137 184 265 31 44 71 98 100 125 313 339 355 32 53 50 46 70 83 110 146 185 237 123 150 230 242 186 182 173 184 165 139 113 133 128 147 167 191 275
277 278 289 296 307 319 322 312 301 290 244 182 224 243 257 190 3 56 201 137 103 87 85 56 344 322 330 6 30 26 33 64 91 118 109 150 193 104 188 229 220 185 159 159 155 133 131 179 192 172 176 186 280 277
264 268 279 291 301 316 321 323 314 210 177 156 180 250 273 193 250 321 29 118 97 98 68 113 279 2 355 60 60 356 59 42 17 128 81 150 49 76 257 232 182 162 142 135 137 109 150 126 134 151 142 293 312 299
256 260 271 284 296 308 315 348 118 147 165 143 128 159 262 250 245 206 135 97 60 116 136 108 150 216 20 62 30 34 46 82 305 92 177 118 193 228 231 187 184 183 177 171 151 145 157 193 208 251 258 273 268 278
248 249 261 269 279 291 295 325 169 156 149 142 119 38 306 318 143 132 218 14 9 342 44 132 128 163 104 54 24 79 1 118 159 255 100 206 256 260 227 201 187 173 152 134 114 232 203 276 230 245 239 244 243 264
238 239 250 255 263 250 233 196 170 154 135 227 103 206 319 168 295 30 273 120 309 315 152 170 172 138 210 123 152 184 169 90 85 250 154 279 272 246 180 173 169 154 163 178 173 156 199 210 231 258 275 261 273 280
231 235 237 246 252 229 220 196 179 159 155 183 140 101 109 33 13 94 241 317 185 228 166 146 177 142 159 146 99 235 129 65 221 143 83 267 251 234 159 155 156 152 154 167 191 253 271 267 264 256 262 270 278 281
226 232 227 240 247 226 216 205 187 169 146 121 65 57 70 276 350 185 212 253 245 168 175 162 132 132 122 94 68 95 102 193 101 108 232 232 249 194 172 154 158 175 172 191 273 284 291 290 292 270 271 278 277 282
222 229 225 241 237 234 218 196 185 159 111 89 111 246 187 245 242 208 222 202 214 123 140 116 111 139 135 86 144 96 180 90 145 239 233 241 214 189 169 151 135 170 189 294 299 314 310 309 304 303 290 287 288 285
221 232 222 241 243 235 199 184 185 145 119 151 144 220 213 254 235 269 279 314 356 141 129 104 69 96 104 108 167 124 154 244 214 226 224 224 195 149 149 146 144 125 331 314 328 326 328 330 320 306 313 315 310 304
215 233 235 233 232 192 175 166 162 116 88 117 298 338 225 29 298 246 208 267 226 154 88 69 118 101 194 144 136 209 155 221 232 210 211 139 127 129 131 122 114 93 29 357 352 346 336 333 325 316 321 330 332 324
198 216 229 216 184 169 168 145 127 161 212 197 241 231 186 187 212 243 177 207 156 149 203 142 149 199 100 86 237 194 208 221 186 169 172 143 137 131 120 106 89 65 43 10 350 351 342 343 343 348 337 333 335 326
207 208 212 186 163 151 119 147 150 194 231 208 171 213 220 170 153 209 197 168 158 233 156 223 131 141 191 190 237 214 192 178 62 130 131 117 113 109 105 104 84 61 35 18 5 352 351 354 354 341 339 334 327 324
198 206 199 178 162 132 123 170 156 216 218 193 236 198 222 239 160 145 172 155 9 338 112 61 119 201 223 216 189 190 159 160 142 148 101 104 115 115 111 100 89 65 41 23 7 0 1 359 352 346 337 331 327 332
202 213 193 177 171 123 121 138 151 135 187 215 106 159 199 215 174 115 113 115 151 20 290 230 221 221 207 221 181 136 143 135 132 113 123 136 123 122 109 98 79 49 42 49 37 15 10 358 354 343 336 336 336 328
202 198 186 159 135 145 127 149 197 202 143 166 181 130 198 250 215 119 139 109 72 226 238 223 249 281 16 101 124 123 127 136 146 153 158 154 158 135 118 107 81 56 53 32 24 2 0 341 332 332 330 329 327 327
142 152 129 154 112 142 101 175 143 132 114 160 121 153 167 223 174 164 140 133 226 241 200 206 216 179 130 118 113 132 132 120 113 106 103 120 120 123 147 119 99 71 61 95 22 352 340 345 339 334 333 331 340 341
151 143 125 135 124 157 159 162 135 142 154 171 123 153 189 214 161 194 199 209 236 207 163 182 142 126 108 116 124 125 133 130 119 119 117 114 119 133 126 119 127 134 122 74 4 358 349 344 347 339 340 344 340 332
137 152 152 164 140 151 153 174 134 119 124 178 177 190 214 178 141 214 241 221 210 132 158 171 145 119 83 105 134 148 150 143 123 114 130 140 142 145 130 125 123 99 102 7 358 5 358 351 342 348 347 343 341 326
134 185 159 169 166 126 134 140 148 152 175 180 165 199 192 165 170 216 227 218 162 175 164 169 176 181 156 128 119 151 162 153 136 129 152 158 138 133 124 117 100 127 176 349 0 350 350 350 346 345 346 345 331 342
191 190 167 155 159 149 165 142 173 171 158 163 205 129 165 162 184 236 212 183 180 173 177 182 178 163 180 192 147 178 175 152 140 120 163 166 171 162 158 134 102 183 322 341 335 333 337 340 341 340 340 345 345 344
161 181 177 60 133 128 109 98 114 137 161 170 180 164 175 188 230 241 199 215 159 184 176 172 171 173 164 146 156 155 153 149 138 135 150 159 155 153 146 156 196 221 300 320 323 324 323 326 332 335 335 337 343 343
129 166 155 179 117 202 132 133 148 181 176 147 142 185 182 194 221 212 208 174 147 142 147 158 172 174 156 155 156 147 139 142 135 131 133 142 166 174 143 99 336 316 285 306 321 310 312 331 328 327 326 327 337 349
139 153 121 100 98 110 164 169 204 207 146 164 174 196 229 235 102 160 243 154 147 144 135 127 134 148 140 145 149 149 160 158 139 132 176 200 223 214 212 243 287 298 334 346 347 331 346 347 329 331 346 345 356 3
189 164 102 119 149 176 205 153 196 240 25 36 74 102 87 29 359 213 170 162 161 158 151 146 147 149 146 150 144 149 176 184 187 182 163 188 196 166 177 177 151 105 61 50 45 42 51 43 42 38 32 27 21 11
122 115 93 75 105 139 181 50 353 76 64 61 359 86 114 139 126 141 162 165 146 135 135 143 157 152 150 150 155 152 184 189 187 179 158 145 147 155 153 140 131 102 78 62 54 49 50 44 40 37 33 27 22 16
115 146 138 112 102 130 107 98 105 116 132 107 99 85 104 199 145 207 190 162 150 152 162 158 157 175 171 171 171 175 175 178 173 165 158 149 146 147 148 143 134 106 89 71 59 56 51 47 42 39 35 29 25 24
119 75 76 101 121 171 174 149 157 126 67 124 140 167 179 184 181 181 175 181 169 161 162 166 167 163 164 168 164 157 155 158 159 162 159 147 129 135 136 158 159 123 91 92 70 61 57 53 49 44 37 32 30 27